Overview Statistics Trail Chart Weather Telemetry Raw packets
 

This is the latest recevied weather packets stored in our database for station/object K7PMV-13. If no packets are shown the sender has not sent any weather packets the latest 10 day(s).

<< 50 51 52 53 54 55 56 >>
Time Temp. Humidity Pressure Rain* Wind** Luminosity Snow
1777343995 23.89° C 25% 1008 hPa 0 mm - 0 W/m² -
1777343693 23.89° C 25% 1007.9 hPa 0 mm - 0 W/m² -
1777343328 23.89° C 25% 1007.8 hPa 0 mm - 0 W/m² -
1777343026 24.44° C 24% 1007.7 hPa 0 mm - 0 W/m² -
1777342604 24.44° C 24% 1007.5 hPa 0 mm - 0 W/m² -
1777342301 24.44° C 24% 1007.5 hPa 0 mm - 0 W/m² -
1777341999 25° C 24% 1007.5 hPa 0 mm - 5 W/m² -
1777341696 25° C 23% 1007.4 hPa 0 mm - 9 W/m² -
1777341393 25° C 23% 1007.5 hPa 0 mm - 11 W/m² -
1777341090 25° C 23% 1007.4 hPa 0 mm - 14 W/m² -
1777340788 25.56° C 22% 1007.4 hPa 0 mm - 18 W/m² -
1777340486 25.56° C 22% 1007.3 hPa 0 mm - 21 W/m² -
1777340183 25.56° C 22% 1007.3 hPa 0 mm - 25 W/m² -
1777339873 25.56° C 22% 1007.3 hPa 0 mm - 26 W/m² -
1777339571 26.11° C 21% 1007.3 hPa 0 mm - 30 W/m² -
1777339268 26.11° C 22% 1007.3 hPa 0 mm - 35 W/m² -
1777338965 26.67° C 23% 1007.3 hPa 0 mm - 37 W/m² -
1777338662 26.67° C 22% 1007.2 hPa 0 mm - 39 W/m² -
1777338360 26.67° C 22% 1007.2 hPa 0 mm - 63 W/m² -
1777338062 26.67° C 22% 1007.2 hPa 0 mm - 54 W/m² -
1777337755 27.22° C 21% 1007.2 hPa 0 mm - 58 W/m² -
1777337453 26.67° C 22% 1007.1 hPa 0 mm - 51 W/m² -
1777337150 26.67° C 22% 1007.2 hPa 0 mm - 54 W/m² -
1777336844 27.22° C 22% 1007.2 hPa 0 mm - 67 W/m² -
1777336538 27.22° C 22% 1007.2 hPa 0 mm - 174 W/m² -

* Rain latest hour (hover to see other rain measurements)
** Current wind speed in m/s (hover to see current wind gust speed)